CW8398 Weather Reports


Display with metric or nautical units.
time (UTC)temp
F
wind
direction
speed
MPH
gust
MPH
rain 1hr
in
rain 24hr
in
rain mn
in
humidity
%
barometer
mb
20260905215803 56 347 1.0 3.0 0.00 0.02 0.02 89 1002.8
20260905215305 56 302 2.0 8.0 0.00 0.02 0.02 88 1002.8
20260905214803 56 16 2.0 6.0 0.00 0.03 0.02 88 1002.8
20260905214303 56 318 3.0 10.0 0.00 0.03 0.02 88 1001.8
20260905213803 56 5 2.0 5.0 0.00 0.04 0.02 88 1001.8
20260905212803 56 329 2.0 5.0 0.00 0.05 0.02 88 1001.8
20260905212306 56 346 2.0 8.0 0.00 0.06 0.02 87 1001.8
20260905211802 56 338 3.0 9.0 0.00 0.07 0.02 87 1001.8
20260905211303 56 315 3.0 10.0 0.00 0.08 0.02 87 1001.8
20260905210803 56 351 3.0 5.0 0.00 0.08 0.02 86 1001.8
20260905210302 56 0 2.0 6.0 0.00 0.08 0.02 86 1001.8
20260905205803 56 348 3.0 12.0 0.00 0.08 0.02 86 1001.8
20260905205306 56 346 2.0 8.0 0.00 0.09 0.02 86 1001.8
20260905204803 56 342 3.0 8.0 0.00 0.09 0.02 86 1001.8
20260905203803 56 343 3.0 10.0 0.00 0.09 0.02 85 998.6
20260905203303 57 346 5.0 12.0 0.00 0.09 0.02 85 998.6
20260905201803 57 330 3.0 8.0 0.00 0.10 0.02 84 998.6
20260905201304 57 334 4.0 12.0 0.00 0.10 0.02 84 998.6
20260905200803 57 334 3.0 12.0 0.00 0.10 0.02 84 998.6
20260905200303 57 5 3.0 9.0 0.00 0.10 0.02 83 998.6
20260905195803 57 2 2.0 7.0 0.00 0.10 0.02 83 998.6
20260905195306 57 345 3.0 8.0 0.00 0.11 0.02 82 998.6
20260905194803 57 338 4.0 9.0 0.00 0.11 0.02 82 998.6
20260905194303 57 10 3.0 8.0 0.00 0.11 0.02 82 998.6
20260905193803 57 15 3.0 10.0 0.00 0.12 0.02 81 998.6
20260905193303 57 339 5.0 9.0 0.00 0.13 0.02 81 998.6
20260905192803 57 313 3.0 9.0 0.00 0.13 0.02 82 998.6
20260905191803 57 340 1.0 3.0 0.00 0.14 0.02 82 998.6
20260905191303 57 0 0.0 0.0 0.00 0.14 0.02 82 998.6
20260905190803 57 309 0.0 0.0 0.00 0.15 0.02 81 998.6
20260905190303 57 255 0.0 0.0 0.00 0.16 0.02 81 998.6
20260905185803 57 255 0.0 0.0 0.00 0.16 0.02 81 998.6
20260905185305 57 236 0.0 0.0 0.00 0.16 0.02 80 998.6
20260905184803 57 267 0.0 1.0 0.00 0.17 0.02 80 998.6
20260905184303 57 225 0.0 1.0 0.00 0.17 0.02 80 998.6
20260905183803 57 199 0.0 2.0 0.00 0.17 0.02 80 998.6
20260905182305 58 178 0.0 1.0 0.00 0.17 0.02 78 998.6
20260905181803 58 241 1.0 3.0 0.00 0.17 0.02 77 998.6
20260905180803 59 355 0.0 0.0 0.00 0.18 0.02 76 998.6
20260905180303 59 355 0.0 0.0 0.00 0.18 0.02 76 998.6
20260905174803 60 355 0.0 0.0 0.00 0.19 0.02 74 998.6
20260905173802 60 355 0.0 0.0 0.00 0.19 0.02 72 998.6
20260905172803 61 355 0.0 0.0 0.00 0.19 0.02 71 998.6
20260905172305 61 355 0.0 0.0 0.00 0.20 0.02 71 998.6
20260905171303 62 355 0.0 0.0 0.00 0.20 0.02 69 998.6
20260905170303 62 355 0.0 0.0 0.00 0.20 0.02 68 998.6
20260905165803 62 355 0.0 0.0 0.00 0.20 0.02 68 998.6
20260905165306 62 355 0.0 0.0 0.00 0.20 0.02 68 998.6
20260905164803 63 355 0.0 2.0 0.00 0.20 0.02 67 998.6
20260905164302 63 355 0.0 0.0 0.00 0.20 0.02 68 998.6
20260905163803 63 355 0.0 1.0 0.00 0.20 0.02 67 998.6
20260905163303 63 355 0.0 1.0 0.00 0.20 0.02 67 998.6
20260905162803 63 355 1.0 2.0 0.00 0.20 0.02 67 998.6
20260905162305 63 355 0.0 0.0 0.00 0.20 0.02 66 998.6
20260905161803 63 355 0.0 1.0 0.00 0.20 0.02 65 998.6
20260905161303 64 355 0.0 2.0 0.00 0.20 0.02 66 998.6
20260905160803 64 355 0.0 2.0 0.00 0.20 0.02 66 998.6
20260905160303 64 355 0.0 0.0 0.00 0.20 0.02 65 998.6
20260905155306 64 335 1.0 3.0 0.00 0.20 0.02 63 998.6
20260905154803 65 24 1.0 3.0 0.00 0.20 0.02 63 998.6
20260905154302 65 323 2.0 3.0 0.00 0.20 0.02 62 998.6
20260905153803 65 347 1.0 6.0 0.00 0.20 0.02 63 998.6
20260905153303 65 333 2.0 5.0 0.00 0.20 0.02 65 998.6
20260905152306 64 324 2.0 3.0 0.00 0.20 0.02 67 998.6
20260905151803 64 338 2.0 3.0 0.00 0.20 0.02 67 998.6
20260905151303 64 8 2.0 6.0 0.00 0.20 0.02 69 998.6
20260905150803 64 19 2.0 9.0 0.00 0.20 0.02 69 998.6
20260905150303 64 346 3.0 7.0 0.00 0.20 0.02 69 998.3
20260905145803 64 12 2.0 6.0 0.00 0.20 0.02 70 998.3
20260905145306 63 0 2.0 5.0 0.00 0.20 0.02 70 998.3
20260905144803 63 12 1.0 3.0 0.00 0.20 0.02 70 998.3
20260905144303 64 11 3.0 6.0 0.00 0.20 0.02 68 998.3
20260905143803 64 357 1.0 5.0 0.00 0.20 0.02 69 998.3
20260905143303 64 18 2.0 6.0 0.00 0.20 0.02 67 998.3
20260905142804 65 12 2.0 8.0 0.00 0.20 0.02 68 998.3
20260905142305 65 358 4.0 10.0 0.00 0.20 0.02 68 996.8
20260905141803 66 14 1.0 3.0 0.00 0.20 0.02 66 996.8
20260905141303 66 357 2.0 7.0 0.00 0.20 0.02 66 996.8
20260905135803 66 10 1.0 3.0 0.00 0.20 0.02 68 996.8
20260905134802 65 1 1.0 3.0 0.00 0.20 0.02 70 996.8
20260905134303 65 356 3.0 6.0 0.00 0.20 0.02 69 996.8
20260905133803 64 13 2.0 6.0 0.00 0.20 0.02 67 996.8
20260905133303 64 22 1.0 3.0 0.00 0.20 0.02 69 996.8
20260905132803 64 13 2.0 3.0 0.00 0.20 0.02 68 996.8
20260905132305 64 22 2.0 3.0 0.00 0.20 0.02 69 996.8
20260905131803 64 26 3.0 5.0 0.00 0.20 0.02 70 996.8
20260905130303 63 3 1.0 7.0 0.00 0.20 0.02 72 996.8
20260905125803 63 311 3.0 7.0 0.00 0.20 0.02 72 996.8
20260905125306 62 232 2.0 8.0 0.00 0.20 0.02 73 996.8
20260905123803 62 350 3.0 8.0 0.00 0.20 0.02 73 996.8
20260905123303 62 353 2.0 6.0 0.00 0.20 0.02 74 996.8
20260905122803 62 208 2.0 6.0 0.00 0.20 0.02 74 996.8
20260905121803 61 267 1.0 7.0 0.00 0.20 0.02 74 996.8
20260905121303 61 349 0.0 2.0 0.00 0.20 0.02 74 996.8
20260905120303 61 339 1.0 5.0 0.00 0.20 0.02 73 996.8
20260905115803 61 240 2.0 6.0 0.00 0.20 0.02 72 996.8
20260905114804 61 43 2.0 6.0 0.00 0.20 0.02 72 996.8
20260905114304 61 257 1.0 3.0 0.00 0.20 0.02 74 996.8
20260905113803 61 0 1.0 3.0 0.00 0.20 0.02 74 996.8
20260905113304 62 336 1.0 3.0 0.00 0.20 0.02 74 995.7
20260905112803 62 341 1.0 6.0 0.00 0.20 0.02 72 995.7
20260905112305 62 32 1.0 3.0 0.00 0.20 0.02 73 995.7
20260905111804 63 14 3.0 8.0 0.00 0.20 0.02 72 995.7
20260905111304 63 7 3.0 6.0 0.00 0.20 0.02 71 995.7
20260905110803 64 245 2.0 7.0 0.00 0.20 0.02 71 995.7
20260905110303 64 268 2.0 8.0 0.00 0.20 0.02 70 995.7
20260905104803 63 298 2.0 5.0 0.00 0.20 0.02 74 995.7
20260905103803 62 258 1.0 5.0 0.00 0.20 0.02 77 995.7
20260905103303 62 354 3.0 6.0 0.00 0.20 0.02 77 995.7
20260905102803 62 300 2.0 3.0 0.00 0.20 0.02 78 995.7
20260905102306 61 0 2.0 5.0 0.00 0.20 0.02 79 995.7
20260905101803 61 276 2.0 5.0 0.00 0.20 0.02 80 995.7
20260905101304 60 282 2.0 6.0 0.00 0.20 0.02 81 995.7
20260905100806 60 6 2.0 3.0 0.00 0.20 0.02 81 995.7
20260905100304 59 354 2.0 5.0 0.00 0.20 0.02 83 995.7
20260905095803 59 324 1.0 2.0 0.00 0.20 0.02 85 995.7
20260905095305 58 253 1.0 3.0 0.00 0.20 0.02 86 995.7
20260905094803 58 339 1.0 3.0 0.00 0.20 0.02 85 995.7
20260905094303 58 271 2.0 5.0 0.00 0.20 0.02 85 995.7
20260905093803 58 261 1.0 3.0 0.00 0.20 0.02 86 995.7
20260905093303 58 260 1.0 3.0 0.00 0.20 0.02 87 995.4
20260905092803 58 195 1.0 3.0 0.00 0.20 0.02 87 995.4
20260905092306 58 229 1.0 3.0 0.00 0.20 0.02 88 995.4
20260905091803 57 355 1.0 2.0 0.00 0.20 0.02 88 995.4
20260905091304 57 250 1.0 3.0 0.00 0.20 0.02 88 994.3
20260905090803 57 339 1.0 3.0 0.00 0.20 0.02 88 994.3
20260905090303 57 25 1.0 3.0 0.00 0.20 0.02 88 994.3
20260905085803 57 56 0.0 3.0 0.00 0.20 0.02 88 994.3
20260905085305 57 298 2.0 6.0 0.00 0.20 0.02 88 994.3
20260905084304 57 35 1.0 3.0 0.00 0.20 0.02 89 994.3
20260905083803 57 2 2.0 6.0 0.00 0.20 0.02 88 994.3
20260905083303 56 0 2.0 6.0 0.00 0.20 0.02 89 994.3
20260905082803 56 315 1.0 6.0 0.00 0.20 0.02 89 994.3
20260905082307 56 10 1.0 5.0 0.00 0.20 0.02 88 994.3
20260905081804 56 320 3.0 5.0 0.00 0.20 0.02 89 994.3
20260905081303 56 40 1.0 3.0 0.00 0.20 0.02 89 994.3
20260905080803 56 4 2.0 5.0 0.00 0.20 0.02 89 994.3
20260905080303 56 332 3.0 5.0 0.00 0.20 0.02 89 994.3
20260905075803 56 316 2.0 3.0 0.00 0.20 0.02 90 994.3
20260905075306 56 315 2.0 3.0 0.00 0.20 0.02 90 994.3
20260905074804 56 0 1.0 2.0 0.00 0.20 0.02 90 994.3
20260905074303 56 356 2.0 6.0 0.00 0.20 0.02 90 994.3
20260905073303 56 355 1.0 3.0 0.00 0.20 0.02 90 994.3
20260905072803 56 269 2.0 3.0 0.00 0.20 0.02 90 994.3
20260905071803 56 310 2.0 8.0 0.00 0.20 0.02 91 994.3
20260905071303 55 358 2.0 5.0 0.00 0.20 0.02 91 993.6
20260905070804 55 315 3.0 6.0 0.00 0.20 0.02 92 993.6
20260905070303 55 351 1.0 3.0 0.00 0.20 0.02 92 993.6
20260905065803 55 324 2.0 5.0 0.00 0.20 0.02 92 993.6
20260905065306 55 359 2.0 5.0 0.00 0.20 0.02 92 993.6
20260905064803 55 355 1.0 3.0 0.00 0.20 0.02 93 993.6
20260905064304 55 0 2.0 5.0 0.00 0.20 0.02 92 993.6
20260905062306 55 358 1.0 3.0 0.00 0.20 0.02 93 993.6
20260905061803 55 358 2.0 5.0 0.00 0.20 0.02 93 993.6
20260905060803 55 12 2.0 6.0 0.00 0.20 0.02 93 993.2
20260905060303 54 332 2.0 5.0 0.00 0.20 0.02 93 993.2
20260905055306 54 291 2.0 5.0 0.00 0.20 0.02 94 993.2
20260905054803 54 319 2.0 10.0 0.00 0.20 0.02 94 993.2
20260905053804 54 25 2.0 7.0 0.00 0.20 0.02 94 993.1
20260905053303 54 340 1.0 7.0 0.00 0.20 0.02 94 993.1
20260905052306 54 350 1.0 3.0 0.00 0.20 0.02 94 993.1
20260905051803 54 359 2.0 5.0 0.00 0.20 0.02 94 993.1
20260905051304 54 322 1.0 3.0 0.00 0.20 0.02 94 993.1
20260905050804 54 343 1.0 5.0 0.00 0.20 0.02 94 993.1
20260905050304 54 298 2.0 5.0 0.00 0.20 0.02 94 992.9
20260905045803 54 347 1.0 6.0 0.00 0.20 0.02 94 992.9
20260905045305 53 349 1.0 7.0 0.00 0.20 0.02 94 992.9
20260905044303 53 331 1.0 3.0 0.00 0.20 0.02 94 992.9
20260905043804 53 330 2.0 3.0 0.00 0.20 0.02 94 992.9
20260905043303 53 345 1.0 3.0 0.00 0.20 0.02 94 992.6
20260905042804 53 13 2.0 6.0 0.00 0.20 0.02 94 992.6
20260905042306 53 319 2.0 5.0 0.00 0.20 0.02 94 992.6
20260905041303 53 344 1.0 5.0 0.00 0.20 0.02 94 992.6
20260905040304 53 5 1.0 5.0 0.00 0.20 0.02 94 992.6
20260905035803 53 342 1.0 3.0 0.00 0.20 0.02 94 992.6
20260905035306 53 3 1.0 3.0 0.00 0.20 0.02 94 992.6
20260905034803 53 351 1.0 3.0 0.00 0.20 0.02 94 992.6
20260905034303 53 14 1.0 5.0 0.00 0.20 0.02 94 992.6
20260905033804 53 351 1.0 5.0 0.00 0.20 0.02 94 992.6
20260905033304 53 337 1.0 3.0 0.00 0.20 0.02 94 992.6
20260905032804 53 306 2.0 3.0 0.00 0.20 0.02 94 992.5
20260905032306 53 14 0.0 3.0 0.00 0.20 0.02 94 992.5
20260905031804 53 2 1.0 3.0 0.00 0.20 0.02 94 991.9
20260905031303 53 308 1.0 3.0 0.00 0.20 0.02 94 991.9
20260905030804 53 322 0.0 0.0 0.00 0.20 0.02 94 991.9
20260905030304 53 11 0.0 0.0 0.00 0.20 0.02 94 991.9
20260905025803 53 11 0.0 0.0 0.00 0.20 0.02 94 991.9
20260905025306 53 11 1.0 2.0 0.00 0.20 0.02 94 991.9
20260905024804 53 259 0.0 1.0 0.00 0.20 0.02 94 991.9
20260905024304 53 338 0.0 1.0 0.00 0.20 0.02 94 991.9
20260905023804 53 338 0.0 0.0 0.00 0.20 0.02 94 991.9
20260905022803 53 338 0.0 0.0 0.00 0.20 0.02 94 991.9
20260905022306 53 338 0.0 0.0 0.00 0.20 0.02 94 991.9
20260905021805 54 338 0.0 1.0 0.00 0.20 0.02 94 991.9
20260905021303 53 28 0.0 2.0 0.00 0.20 0.02 94 991.9
20260905020803 53 329 0.0 1.0 0.00 0.20 0.02 94 991.9
20260905020304 54 355 0.0 2.0 0.00 0.20 0.02 94 991.9
20260905015804 53 32 0.0 3.0 0.00 0.20 0.02 94 991.9
20260905014804 53 43 0.0 2.0 0.00 0.20 0.02 94 991.9
20260905013803 53 30 1.0 5.0 0.00 0.20 0.02 94 991.9
20260905013303 53 71 0.0 1.0 0.00 0.20 0.02 93 991.9
20260905012306 53 56 1.0 2.0 0.00 0.20 0.02 93 991.9
20260905011804 53 13 0.0 1.0 0.00 0.20 0.02 93 991.9
20260905011304 53 355 0.0 1.0 0.00 0.20 0.02 93 991.9
20260905010804 53 355 0.0 1.0 0.00 0.20 0.02 93 991.9
20260905010304 53 355 0.0 1.0 0.00 0.20 0.02 93 991.9
20260905005803 53 355 0.0 1.0 0.00 0.20 0.02 93 991.9
20260905005306 53 355 0.0 2.0 0.00 0.20 0.02 93 991.9
20260905004803 53 355 0.0 1.0 0.00 0.20 0.02 93 991.9
20260905004303 53 355 0.0 3.0 0.00 0.20 0.02 93 991.9
20260905003303 53 15 1.0 2.0 0.00 0.20 0.02 93 991.9
20260905002804 53 38 1.0 3.0 0.00 0.20 0.02 93 991.9
20260905002306 53 9 0.0 3.0 0.00 0.20 0.02 93 992.2
20260905001803 53 21 1.0 2.0 0.00 0.20 0.02 93 992.2
20260905001303 53 33 0.0 2.0 0.00 0.20 0.02 93 992.2
20260905000804 53 36 0.0 2.0 0.00 0.20 0.02 93 992.2
20260904235803 53 5 0.0 2.0 0.00 0.20 0.02 93 992.2
20260904234803 53 21 1.0 3.0 0.00 0.20 0.02 93 992.2
20260904234303 53 355 0.0 2.0 0.01 0.20 0.02 93 992.2
20260904233804 53 8 0.0 2.0 0.01 0.20 0.02 93 992.2
20260904233303 53 17 1.0 2.0 0.01 0.20 0.02 93 992.2
20260904232306 53 20 1.0 3.0 0.01 0.20 0.02 93 992.2
20260904231803 53 11 1.0 3.0 0.02 0.20 0.02 93 992.2
20260904231304 53 5 1.0 3.0 0.02 0.20 0.02 93 992.2
20260904230804 53 18 0.0 3.0 0.02 0.20 0.02 93 992.2
20260904225804 53 41 0.0 1.0 0.02 0.20 0.02 93 992.2
20260904225306 53 41 0.0 3.0 0.02 0.20 0.02 93 992.2
20260904224802 53 20 2.0 3.0 0.03 0.20 0.02 93 992.2
20260904224302 53 23 0.0 3.0 0.02 0.19 0.02 93 992.2
20260904223802 53 5 0.0 3.0 0.03 0.19 0.02 93 992.2
20260904223302 53 5 1.0 3.0 0.03 0.19 0.02 93 992.8
20260904222305 52 28 2.0 3.0 0.06 0.19 0.02 92 992.8
20260904221802 52 34 1.0 5.0 0.06 0.18 0.01 92 992.8
20260904221303 52 5 1.0 3.0 0.06 0.18 0.01 92 992.8
20260904220814 52 18 2.0 3.0 0.06 0.18 0.01 92 992.8
20260904220302 52 5 1.0 3.0 0.06 0.17 0.00 91 992.8